When you browse on this site, cookies collect data to enhance your experience and personalize the content and advertising you see.
Visit our Privacy Policy to learn more. By continuing to use the site, you agree to this use of cookies and data.
  • en France
  • Liste des pays
  • À 7 jours
  • Température de l'eau
  • Carte satellitaire
  • Carte météo
  • Widgets météo
  • user-avatar
    Se connecter

    Météo par heure à Tarija

    Ce jour, 27 Mai, Lundi

    Heure Température Précipitation Vent Pression Humidité
    00:00 +14°C° 0 mm 1 m/s 595 mmHg 43%
    01:00 +14°C° 0 mm 1 m/s 595 mmHg 44%
    02:00 +14°C° 0 mm 2 m/s 595 mmHg 44%
    03:00 +13°C° 0 mm 2 m/s 595 mmHg 42%
    04:00 +13°C° 0 mm 2 m/s 595 mmHg 40%
    05:00 +12°C° 0 mm 3 m/s 595 mmHg 38%
    06:00 +14°C° 0 mm 3 m/s 596 mmHg 35%
    07:00 +16°C° 0 mm 3 m/s 596 mmHg 32%
    08:00 +17°C° 0 mm 3 m/s 597 mmHg 29%
    09:00 +20°C° 0 mm 5 m/s 598 mmHg 23%
    10:00 +23°C° 0 mm 6 m/s 599 mmHg 18%
    11:00 +26°C° 0 mm 8 m/s 599 mmHg 12%
    12:00 +27°C° 0 mm 9 m/s 599 mmHg 12%
    13:00 +28°C° 0 mm 9 m/s 599 mmHg 11%
    14:00 +29°C° 0 mm 9 m/s 599 mmHg 11%
    15:00 +28°C° 0 mm 8 m/s 598 mmHg 16%
    16:00 +26°C° 0 mm 7 m/s 598 mmHg 22%
    17:00 +25°C° 0 mm 5 m/s 597 mmHg 28%
    18:00 +21°C° 0 mm 4 m/s 597 mmHg 38%
    19:00 +19°C° 0 mm 3 m/s 597 mmHg 48%
    20:00 +17°C° 0 mm 2 m/s 596 mmHg 58%
    21:00 +16°C° 0 mm 2 m/s 596 mmHg 58%
    22:00 +16°C° 0 mm 2 m/s 596 mmHg 58%
    23:00 +16°C° 0 mm 2 m/s 596 mmHg 59%

    Demain, 28 Mai, Mardi

    Heure Température Précipitation Vent Pression Humidité
    00:00 +15°C° 0 mm 2 m/s 596 mmHg 57%
    01:00 +15°C° 0 mm 2 m/s 596 mmHg 56%
    02:00 +14°C° 0 mm 2 m/s 596 mmHg 54%
    03:00 +14°C° 0 mm 2 m/s 596 mmHg 52%
    04:00 +14°C° 0 mm 2 m/s 596 mmHg 50%
    05:00 +13°C° 0 mm 2 m/s 595 mmHg 47%
    06:00 +14°C° 0 mm 2 m/s 596 mmHg 44%
    07:00 +15°C° 0 mm 2 m/s 597 mmHg 40%
    08:00 +16°C° 0 mm 2 m/s 598 mmHg 37%
    09:00 +18°C° 0 mm 3 m/s 599 mmHg 32%
    10:00 +20°C° 0 mm 3 m/s 600 mmHg 28%
    11:00 +24°C° 0 mm 3 m/s 600 mmHg 23%
    12:00 +25°C° 0 mm 4 m/s 600 mmHg 24%
    13:00 +26°C° 0 mm 4 m/s 600 mmHg 25%
    14:00 +26°C° 0 mm 5 m/s 599 mmHg 26%
    15:00 +23°C° 0 mm 4 m/s 598 mmHg 37%
    16:00 +21°C° 0 mm 4 m/s 598 mmHg 48%
    17:00 +20°C° 0 mm 4 m/s 597 mmHg 60%
    18:00 +18°C° 0 mm 3 m/s 597 mmHg 67%
    19:00 +17°C° 0 mm 3 m/s 597 mmHg 74%
    20:00 +16°C° 0 mm 2 m/s 597 mmHg 81%
    21:00 +16°C° 0 mm 2 m/s 597 mmHg 81%
    22:00 +15°C° 0 mm 2 m/s 597 mmHg 82%
    23:00 +15°C° 0 mm 2 m/s 597 mmHg 82%

    Après-demain, 29 Mai, Mercredi

    Heure Température Précipitation Vent Pression Humidité
    00:00 +15°C° 0 mm 2 m/s 597 mmHg 81%
    01:00 +15°C° 0 mm 2 m/s 597 mmHg 79%
    02:00 +15°C° 0 mm 2 m/s 597 mmHg 78%
    03:00 +14°C° 0 mm 2 m/s 596 mmHg 74%
    04:00 +14°C° 0 mm 2 m/s 596 mmHg 70%
    05:00 +14°C° 0 mm 2 m/s 596 mmHg 67%
    06:00 +15°C° 0 mm 2 m/s 597 mmHg 60%
    07:00 +16°C° 0 mm 2 m/s 597 mmHg 54%
    08:00 +17°C° 0 mm 2 m/s 598 mmHg 48%
    09:00 +19°C° 0 mm 3 m/s 599 mmHg 40%
    10:00 +22°C° 0 mm 3 m/s 599 mmHg 32%
    11:00 +25°C° 0 mm 4 m/s 600 mmHg 24%
    12:00 +27°C° 0 mm 4 m/s 600 mmHg 21%
    13:00 +28°C° 0 mm 5 m/s 599 mmHg 18%
    14:00 +29°C° 0 mm 6 m/s 599 mmHg 15%
    15:00 +28°C° 0 mm 5 m/s 598 mmHg 21%
    16:00 +27°C° 0 mm 5 m/s 597 mmHg 27%
    17:00 +25°C° 0 mm 4 m/s 596 mmHg 33%
    18:00 +22°C° 0 mm 4 m/s 596 mmHg 36%
    19:00 +20°C° 0 mm 4 m/s 596 mmHg 40%
    20:00 +19°C° 0 mm 3 m/s 595 mmHg 44%
    21:00 +18°C° 0 mm 3 m/s 595 mmHg 39%
    22:00 +18°C° 0 mm 3 m/s 595 mmHg 33%
    23:00 +17°C° 0 mm 3 m/s 595 mmHg 28%

    30 Mai, Jeudi

    Heure Température Précipitation Vent Pression Humidité
    00:00 +17°C° 0 mm 3 m/s 595 mmHg 25%
    01:00 +16°C° 0 mm 3 m/s 594 mmHg 21%
    02:00 +16°C° 0 mm 3 m/s 594 mmHg 17%
    03:00 +14°C° 0 mm 3 m/s 594 mmHg 18%
    04:00 +14°C° 0 mm 4 m/s 594 mmHg 18%
    05:00 +13°C° 0 mm 4 m/s 594 mmHg 19%
    06:00 +14°C° 0 mm 4 m/s 595 mmHg 20%
    07:00 +15°C° 0 mm 4 m/s 596 mmHg 21%
    08:00 +17°C° 0 mm 4 m/s 596 mmHg 22%
    09:00 +20°C° 0 mm 4 m/s 597 mmHg 18%
    10:00 +23°C° 0 mm 4 m/s 599 mmHg 13%
    11:00 +27°C° 0 mm 4 m/s 600 mmHg 9%
    12:00 +28°C° 0 mm 5 m/s 599 mmHg 9%
    13:00 +29°C° 0 mm 5 m/s 599 mmHg 8%
    14:00 +32°C° 0 mm 6 m/s 599 mmHg 8%
    15:00 +28°C° 0 mm 5 m/s 598 mmHg 17%
    16:00 +26°C° 0 mm 5 m/s 597 mmHg 26%
    17:00 +23°C° 0 mm 4 m/s 596 mmHg 36%
    18:00 +21°C° 0 mm 3 m/s 596 mmHg 45%
    19:00 +19°C° 0 mm 3 m/s 596 mmHg 54%
    20:00 +17°C° 0 mm 2 m/s 596 mmHg 63%
    21:00 +17°C° 0 mm 2 m/s 596 mmHg 64%
    22:00 +16°C° 0 mm 2 m/s 596 mmHg 64%
    23:00 +16°C° 0 mm 2 m/s 596 mmHg 65%

    31 Mai, Vendredi

    Heure Température Précipitation Vent Pression Humidité
    00:00 +15°C° 0 mm 2 m/s 596 mmHg 64%
    01:00 +15°C° 0 mm 2 m/s 596 mmHg 64%
    02:00 +15°C° 0 mm 2 m/s 595 mmHg 64%
    03:00 +14°C° 0 mm 2 m/s 595 mmHg 62%
    04:00 +14°C° 0 mm 2 m/s 595 mmHg 60%
    05:00 +14°C° 0 mm 2 m/s 595 mmHg 58%
    06:00 +15°C° 0 mm 2 m/s 596 mmHg 54%
    07:00 +15°C° 0 mm 2 m/s 596 mmHg 50%
    08:00 +16°C° 0 mm 2 m/s 597 mmHg 46%
    09:00 +18°C° 0 mm 3 m/s 598 mmHg 39%
    10:00 +21°C° 0 mm 3 m/s 598 mmHg 32%
    11:00 +24°C° 0 mm 3 m/s 599 mmHg 25%
    12:00 +25°C° 0 mm 4 m/s 599 mmHg 23%
    13:00 +27°C° 0 mm 5 m/s 598 mmHg 21%
    14:00 +28°C° 0 mm 5 m/s 598 mmHg 20%
    15:00 +26°C° 0 mm 5 m/s 597 mmHg 28%
    16:00 +25°C° 0 mm 5 m/s 596 mmHg 36%
    17:00 +22°C° 0 mm 4 m/s 595 mmHg 44%
    18:00 +20°C° 0 mm 4 m/s 595 mmHg 50%
    19:00 +18°C° 0 mm 3 m/s 595 mmHg 56%
    20:00 +17°C° 0 mm 2 m/s 595 mmHg 62%
    21:00 +16°C° 0 mm 2 m/s 595 mmHg 61%
    22:00 +16°C° 0 mm 2 m/s 595 mmHg 61%
    23:00 +16°C° 0 mm 2 m/s 595 mmHg 60%

    1 Juin, Samedi

    Heure Température Précipitation Vent Pression Humidité
    00:00 +16°C° 0 mm 2 m/s 595 mmHg 56%
    01:00 +15°C° 0 mm 2 m/s 594 mmHg 51%
    02:00 +14°C° 0 mm 3 m/s 594 mmHg 47%
    03:00 +14°C° 0 mm 3 m/s 594 mmHg 42%
    04:00 +14°C° 0 mm 2 m/s 594 mmHg 37%
    05:00 +13°C° 0 mm 2 m/s 594 mmHg 32%
    06:00 +14°C° 0 mm 2 m/s 595 mmHg 30%
    07:00 +15°C° 0 mm 2 m/s 596 mmHg 29%
    08:00 +16°C° 0 mm 2 m/s 597 mmHg 27%
    09:00 +19°C° 0 mm 3 m/s 597 mmHg 23%
    10:00 +21°C° 0 mm 3 m/s 598 mmHg 19%
    11:00 +25°C° 0 mm 4 m/s 599 mmHg 16%
    12:00 +26°C° 0 mm 4 m/s 599 mmHg 17%
    13:00 +27°C° 0 mm 4 m/s 598 mmHg 18%
    14:00 +27°C° 0 mm 5 m/s 598 mmHg 19%
    15:00 +25°C° 0 mm 4 m/s 597 mmHg 31%
    16:00 +22°C° 0 mm 4 m/s 597 mmHg 42%
    17:00 +20°C° 0 mm 4 m/s 596 mmHg 54%
    18:00 +19°C° 0 mm 3 m/s 596 mmHg 64%
    19:00 +17°C° 0 mm 3 m/s 596 mmHg 74%
    20:00 +16°C° 0 mm 2 m/s 596 mmHg 84%
    21:00 +16°C° 0 mm 2 m/s 596 mmHg 85%
    22:00 +15°C° 0 mm 2 m/s 597 mmHg 87%
    23:00 +15°C° 0 mm 2 m/s 597 mmHg 88%
    Voir plus